Temp
52 57 59 59 61 64 54 62 60 62 64 68 71 76 79 82 82 81 86 82 85 86 84 84 84 85 85 84 81 81 79 78 78 79 79 78 76 76 76 76 77 77 77 77
46 59 60 59 64 65 65 66 61 68 64 74 75 76 80 79 82 79 82 86 86 86 85 84 84 84 84 83 80 81 79 78 79 78 77 77 76 75 76 76 77 77 77 78
40 53 55 52 60 64 65 68 67 62 69 72 73 74 76 76 82 81 81 84 82 85 85 84 85 86 83 83 82 79 79 79 78 77 76 76 76 76 76 77 77 77 77 78
41 45 40 56 64 65 62 68 68 69 72 74 72 74 75 77 79 77 77 79 81 84 87 85 86 85 85 83 80 80 79 79 78 77 77 75 76 76 76 77 77 77 77 75
40 39 52 56 61 59 57 57 66 63 73 78 75 77 72 79 77 75 74 76 77 79 81 80 82 83 81 79 79 79 79 78 77 77 76 76 76 77 76 77 76 76 74 72
41 39 40 50 61 68 66 50 65 64 65 77 75 67 65 71 78 75 75 74 77 81 80 79 77 80 80 79 79 79 81 79 78 78 78 77 78 76 76 76 74 74 70 71
41 42 48 59 63 68 50 49 62 63 62 63 61 66 66 69 70 72 72 73 75 77 79 80 78 78 80 78 79 81 81 78 77 79 79 79 77 76 74 74 72 71 70 69
41 44 40 63 63 53 57 59 61 63 62 60 62 64 65 67 66 70 70 71 73 72 73 75 77 78 76 75 80 77 77 78 77 77 80 79 76 74 73 72 72 71 69 67
45 45 52 61 56 63 66 59 59 60 62 62 61 61 62 61 62 65 67 68 70 70 72 74 74 75 75 77 77 77 76 76 77 77 78 77 74 73 72 72 72 70 68 67
47 49 49 59 64 66 65 62 62 62 62 62 59 60 59 59 60 63 63 64 67 69 70 71 74 75 76 76 76 76 76 76 77 77 76 75 75 74 73 72 71 70 68 67
45 47 50 56 54 57 64 65 66 64 63 61 60 59 58 57 58 59 62 63 64 65 66 67 71 73 75 77 76 75 76 76 76 77 76 73 68 68 73 74 73 72 70 69
37 47 46 48 54 60 59 62 65 63 62 62 60 58 58 57 57 58 60 61 62 62 65 66 68 70 74 76 77 76 75 76 77 76 71 68 66 63 53 56 57 56 59 66
45 50 51 53 56 59 56 62 66 63 61 61 61 60 59 57 58 58 60 60 60 61 64 66 68 69 75 76 76 77 76 77 72 69 69 69 69 68 65 57 49 51 52 52
50 51 49 52 50 56 57 61 64 65 64 63 62 60 59 58 58 58 59 59 61 62 65 68 70 72 75 76 76 75 75 64 72 71 70 71 72 71 69 69 66 59 51 53
48 50 50 52 55 55 57 59 58 59 61 62 62 60 59 58 58 58 59 61 62 63 65 67 71 74 76 77 75 72 71 73 72 71 73 71 72 71 72 70 65 59 53 50
48 50 51 51 52 54 54 56 56 57 59 60 60 61 60 59 58 59 59 60 61 61 64 66 68 69 74 76 73 73 73 69 70 72 70 71 70 70 70 65 61 59 60 58
44 45 47 49 50 50 52 55 55 56 58 58 59 61 60 59 58 58 59 61 61 61 63 65 66 66 68 72 74 73 74 72 69 72 71 71 71 71 67 64 62 62 62 58
51 51 52 51 51 52 53 55 54 56 58 59 60 59 58 58 56 56 57 59 62 62 62 66 65 65 70 71 73 74 73 74 74 73 72 72 72 71 67 66 63 63 60 57
51 50 52 52 52 52 53 52 54 55 56 55 55 56 57 58 57 57 57 56 58 58 62 65 65 66 68 69 68 73 74 74 73 74 74 69 72 70 69 68 65 64 62 60
49 50 50 50 52 50 49 52 53 53 52 51 50 51 53 56 58 58 56 54 57 57 60 65 64 65 67 69 65 70 72 75 74 74 75 75 75 70 70 63 67 64 64 63
47 47 48 48 49 50 49 50 50 50 50 51 49 49 49 51 53 56 55 53 56 56 57 62 64 65 67 64 67 69 70 71 74 73 75 75 76 71 71 69 69 66 65 64
45 45 45 46 46 47 49 49 50 50 49 49 49 49 49 48 51 49 52 50 53 53 54 59 59 58 60 61 67 67 68 70 70 72 73 74 76 72 72 70 69 67 67 65
44 44 44 43 43 43 45 47 47 47 47 47 47 47 47 48 49 47 47 52 53 52 53 56 55 54 56 61 65 66 65 68 68 67 68 70 73 73 73 71 71 68 66 65
44 44 44 45 43 42 41 42 44 45 48 47 46 47 47 46 48 50 51 51 50 50 53 54 54 53 54 60 63 65 66 66 67 66 67 59 66 67 67 67 70 68 68 64
46 45 44 43 41 40 41 41 40 40 41 45 47 48 48 49 46 48 50 50 50 50 54 54 52 52 53 55 57 57 62 67 66 65 67 67 67 67 67 67 67 66 65 68
46 46 44 43 42 42 41 41 39 40 39 39 42 44 46 46 46 47 49 49 50 49 51 53 52 52 53 53 54 54 55 59 60 64 64 67 68 69 69 69 68 65 66 68
46 47 45 43 43 43 42 42 41 41 41 40 40 42 42 44 47 47 46 46 48 49 49 50 52 51 51 52 51 52 51 52 50 54 58 62 65 64 65 64 66 67 67 68
MSLP
1007.20 1005.78 1004.50 1003.45 1002.54 1001.60 1001.68 1000.89 1000.46 1000.54 999.98 998.76 998.25 997.14 997.11 996.97 997.24 997.86 997.88 998.14 998.67 999.34 1000.23 1001.06 1002.23 1003.03 1003.80 1004.60 1005.54 1006.27 1007.13 1007.84 1008.13 1008.44 1008.86 1009.46 1010.02 1010.38 1010.70 1011.12 1011.29 1011.38 1011.55 1011.67
1007.84 1005.76 1004.46 1003.15 1002.04 1001.19 1000.48 999.98 999.46 999.09 998.95 997.86 997.35 997.19 997.58 997.54 997.45 997.97 997.58 998.07 998.06 998.72 999.74 1000.73 1001.41 1002.26 1003.17 1004.10 1005.02 1005.74 1006.46 1006.99 1007.43 1008.01 1008.56 1009.03 1009.40 1009.82 1010.30 1010.56 1010.68 1010.94 1011.11 1011.11
1008.51 1006.14 1004.47 1003.25 1001.93 1000.92 1000.19 999.28 998.85 998.73 998.38 997.82 997.90 997.78 997.08 997.12 997.73 997.92 998.96 997.96 998.45 998.57 998.85 999.86 1000.76 1001.59 1002.71 1003.53 1004.37 1005.18 1005.80 1006.28 1006.96 1007.54 1007.98 1008.44 1008.90 1009.40 1009.84 1010.02 1010.13 1010.45 1010.58 1010.72
1008.94 1006.84 1004.99 1003.01 1002.11 1001.48 1000.88 999.77 999.20 998.18 998.03 997.84 998.15 998.03 997.28 997.28 997.42 998.14 998.43 998.71 998.32 998.68 998.99 999.67 1000.44 1001.31 1002.10 1003.03 1003.89 1004.65 1005.24 1005.80 1006.37 1006.95 1007.48 1008.04 1008.53 1008.90 1009.16 1009.38 1009.76 1010.04 1010.36 1010.92
1009.34 1007.80 1005.10 1003.59 1003.32 1003.31 1002.87 1001.52 1001.02 1000.02 998.20 998.14 998.46 998.20 999.04 998.20 998.78 999.39 999.99 999.63 999.11 998.87 999.12 999.71 1000.43 1001.04 1001.99 1002.91 1003.54 1004.23 1004.65 1005.14 1005.70 1006.35 1007.02 1007.53 1008.03 1008.32 1008.62 1009.04 1009.55 1009.96 1010.54 1011.23
1009.66 1008.28 1006.64 1006.16 1004.07 1002.62 1002.82 1002.98 1002.20 1001.04 999.76 998.56 998.55 999.96 1000.64 999.62 999.01 999.68 1000.83 1000.51 999.91 999.27 999.65 1000.06 1000.59 1001.06 1001.82 1002.62 1003.14 1003.59 1003.96 1004.38 1005.06 1005.70 1006.31 1006.84 1007.30 1007.82 1008.22 1008.77 1009.56 1010.24 1011.02 1011.53
1010.18 1008.90 1007.32 1006.11 1004.25 1002.48 1003.46 1005.36 1003.84 1002.79 1001.64 1000.33 1000.42 1000.40 1000.90 1000.88 1000.65 1000.66 1001.46 1001.31 1000.74 1000.02 1000.21 1000.42 1000.82 1001.20 1001.81 1002.21 1002.52 1002.75 1003.34 1003.95 1004.60 1005.11 1005.58 1006.07 1006.75 1007.48 1008.25 1009.08 1009.80 1010.52 1011.33 1012.14
1010.23 1009.63 1009.08 1006.91 1005.20 1005.22 1006.26 1005.60 1004.80 1004.21 1003.44 1002.71 1002.60 1002.63 1002.56 1002.20 1002.24 1001.73 1001.69 1002.26 1002.00 1001.46 1001.30 1001.04 1000.94 1001.32 1001.80 1002.06 1001.92 1002.37 1002.94 1003.56 1004.12 1004.60 1005.09 1005.70 1006.50 1007.57 1008.32 1009.07 1010.01 1010.80 1011.66 1012.56
1011.39 1012.25 1011.16 1008.96 1007.99 1007.26 1006.46 1006.05 1005.81 1005.52 1005.24 1004.71 1004.22 1003.91 1004.05 1003.63 1003.39 1002.74 1002.78 1003.21 1003.18 1002.50 1002.31 1001.94 1001.79 1001.51 1001.63 1001.54 1001.98 1002.38 1002.92 1003.38 1003.87 1004.45 1004.98 1005.50 1006.50 1007.63 1008.50 1009.13 1009.84 1010.87 1011.67 1012.71
1012.13 1012.26 1011.33 1009.83 1008.50 1007.59 1007.29 1006.79 1006.58 1006.40 1006.24 1005.88 1005.84 1005.61 1005.14 1004.80 1004.66 1004.01 1003.74 1003.84 1004.01 1003.28 1003.18 1002.62 1002.02 1001.78 1001.65 1001.57 1001.74 1002.25 1002.78 1003.22 1003.68 1004.29 1005.18 1005.94 1006.77 1007.52 1008.22 1008.92 1009.59 1010.64 1011.58 1012.57
1014.01 1013.80 1011.96 1010.34 1010.38 1009.85 1008.38 1007.52 1006.81 1006.72 1006.61 1006.67 1006.43 1006.25 1006.23 1006.39 1005.88 1005.18 1004.87 1005.00 1004.40 1004.04 1003.87 1003.09 1002.45 1002.04 1001.53 1001.58 1001.69 1002.25 1002.69 1003.10 1003.68 1004.39 1005.17 1006.26 1007.38 1008.20 1008.24 1008.46 1008.79 1009.96 1010.99 1011.75
1016.12 1016.03 1015.40 1013.75 1012.64 1011.19 1009.68 1008.34 1007.58 1006.98 1006.91 1006.90 1006.76 1006.90 1006.78 1006.60 1006.30 1005.31 1005.02 1004.65 1004.30 1004.20 1003.94 1003.28 1002.79 1002.32 1001.72 1001.59 1001.74 1002.13 1002.74 1003.17 1003.57 1004.41 1005.43 1006.40 1007.39 1008.46 1008.80 1008.62 1009.15 1009.95 1010.77 1011.32
1016.49 1016.07 1015.22 1014.30 1013.26 1011.94 1011.10 1009.71 1008.04 1007.41 1007.35 1007.16 1007.07 1007.07 1006.89 1007.06 1006.70 1006.36 1006.18 1005.70 1005.08 1004.77 1004.06 1003.51 1003.07 1002.49 1001.59 1001.50 1001.67 1002.07 1002.52 1003.08 1003.80 1004.65 1005.51 1006.28 1007.25 1007.96 1009.17 1010.06 1010.11 1010.37 1011.04 1011.66
1016.60 1015.78 1014.84 1014.95 1014.20 1012.58 1012.17 1010.89 1009.57 1008.66 1008.16 1007.86 1007.76 1007.72 1007.67 1007.75 1007.43 1006.92 1006.51 1006.10 1005.36 1004.74 1004.18 1003.50 1002.54 1001.54 1001.30 1001.45 1001.62 1002.07 1002.55 1003.10 1003.70 1004.43 1005.27 1006.01 1006.84 1007.58 1008.39 1009.42 1010.59 1011.66 1012.12 1012.11
1016.52 1016.45 1015.75 1015.02 1014.42 1013.40 1012.43 1011.43 1010.95 1010.06 1009.52 1008.96 1008.59 1008.30 1008.24 1008.27 1007.76 1006.82 1006.26 1005.75 1005.16 1004.72 1004.09 1003.52 1002.77 1002.05 1001.62 1001.51 1001.70 1002.15 1002.83 1003.40 1003.83 1004.27 1004.98 1005.62 1006.50 1007.26 1008.20 1009.11 1010.33 1011.50 1012.54 1013.10
1016.77 1015.98 1015.39 1015.28 1014.90 1014.37 1013.76 1011.99 1011.69 1011.31 1010.35 1009.44 1009.00 1008.82 1008.52 1008.10 1007.75 1007.13 1006.46 1006.11 1005.68 1005.67 1005.04 1004.42 1003.66 1003.24 1002.51 1001.99 1001.88 1002.02 1002.58 1003.02 1003.58 1004.14 1004.92 1005.58 1006.23 1007.02 1008.00 1009.07 1010.10 1011.09 1011.85 1012.82
1016.80 1016.14 1015.65 1015.71 1015.13 1014.17 1013.18 1012.92 1012.89 1012.70 1010.99 1009.99 1009.58 1009.05 1008.76 1008.13 1007.59 1007.01 1006.71 1006.46 1006.21 1006.10 1005.48 1004.88 1004.38 1003.80 1003.24 1002.53 1002.23 1002.01 1002.25 1003.00 1003.23 1003.98 1004.65 1005.32 1005.94 1006.73 1007.78 1008.76 1009.58 1010.36 1011.04 1011.88
1017.07 1016.42 1015.96 1015.62 1015.36 1014.94 1014.54 1014.35 1013.62 1012.14 1011.06 1010.25 1009.58 1008.98 1008.63 1008.28 1008.02 1007.52 1007.38 1007.01 1006.46 1005.90 1005.22 1004.72 1004.48 1004.04 1003.20 1002.62 1002.24 1002.18 1002.00 1002.37 1003.08 1003.68 1004.31 1004.93 1005.53 1006.36 1007.38 1008.19 1009.03 1009.85 1010.78 1011.75
1017.46 1017.10 1017.02 1016.37 1015.67 1015.06 1014.56 1013.76 1012.74 1011.76 1011.10 1010.66 1010.04 1009.42 1009.25 1008.82 1008.29 1007.96 1007.62 1007.46 1006.99 1006.41 1005.64 1005.03 1004.36 1004.10 1003.74 1002.96 1002.52 1002.09 1001.97 1002.20 1002.58 1003.28 1003.95 1004.52 1005.18 1006.02 1006.77 1007.66 1008.55 1009.40 1010.28 1011.16
1018.48 1018.00 1017.49 1016.84 1016.50 1015.88 1015.15 1014.60 1014.03 1013.14 1012.61 1012.12 1011.46 1010.82 1010.44 1009.89 1008.91 1008.55 1008.17 1008.08 1008.10 1007.85 1006.17 1005.12 1004.65 1003.82 1004.18 1003.42 1002.82 1002.26 1002.14 1002.09 1002.15 1002.70 1003.32 1003.95 1004.47 1005.38 1006.08 1006.90 1007.74 1008.68 1009.54 1010.28
1018.49 1018.32 1017.67 1017.09 1016.60 1016.16 1015.56 1015.32 1014.78 1014.14 1013.85 1013.58 1013.07 1012.59 1012.15 1011.07 1010.24 1009.53 1009.16 1009.01 1008.57 1007.98 1007.16 1005.80 1005.29 1005.17 1004.28 1003.85 1003.04 1002.80 1002.56 1002.40 1002.13 1002.17 1002.42 1002.72 1003.30 1004.32 1005.20 1006.16 1006.93 1007.89 1008.64 1009.52
1018.71 1018.36 1018.02 1017.64 1017.25 1016.82 1016.47 1016.08 1015.42 1014.78 1014.38 1014.11 1013.49 1012.95 1012.32 1011.81 1011.18 1010.89 1010.79 1010.80 1009.83 1009.00 1008.10 1007.00 1006.58 1006.01 1004.85 1004.21 1003.35 1003.02 1002.89 1002.28 1001.94 1001.62 1001.77 1001.86 1001.97 1002.80 1003.68 1004.80 1005.85 1006.95 1007.92 1008.75
1018.60 1018.51 1018.20 1018.05 1017.81 1017.73 1017.33 1016.48 1016.02 1015.53 1015.22 1015.11 1014.48 1014.08 1013.74 1013.38 1012.78 1012.21 1011.40 1010.88 1010.47 1009.84 1008.87 1007.95 1007.30 1006.30 1005.14 1004.22 1003.56 1003.23 1003.13 1002.40 1002.02 1001.78 1001.90 1001.41 1001.41 1002.18 1002.99 1003.68 1004.58 1005.62 1006.82 1007.77
1018.62 1018.51 1018.42 1018.26 1018.11 1018.06 1017.94 1017.85 1017.59 1017.14 1016.56 1016.00 1015.43 1015.06 1014.66 1014.08 1013.54 1013.20 1012.62 1011.87 1011.16 1010.39 1009.48 1008.83 1007.90 1006.98 1005.93 1005.10 1004.48 1004.00 1003.46 1002.90 1002.52 1002.08 1001.63 1000.48 1000.94 1002.29 1003.35 1003.76 1004.04 1004.54 1005.36 1006.63
1018.66 1018.89 1018.99 1018.76 1018.67 1018.49 1018.31 1018.10 1017.76 1017.22 1016.87 1016.44 1015.88 1015.57 1015.36 1014.85 1014.34 1013.50 1012.81 1012.22 1011.54 1010.76 1009.78 1009.12 1008.50 1007.68 1007.02 1006.37 1005.56 1004.81 1003.92 1002.81 1002.20 1002.28 1001.68 1001.46 1002.88 1002.81 1002.98 1003.20 1004.20 1005.35 1004.92 1005.34
1018.14 1018.03 1017.88 1018.11 1018.30 1018.35 1018.26 1018.10 1017.93 1017.66 1017.45 1017.15 1016.58 1016.16 1015.58 1014.90 1014.45 1013.96 1013.36 1012.69 1012.04 1011.41 1010.60 1009.86 1009.30 1008.69 1008.06 1007.50 1006.75 1005.96 1005.06 1003.88 1003.29 1002.70 1002.20 1002.12 1001.62 1002.53 1002.88 1002.59 1003.54 1004.60 1005.18 1005.04
1018.36 1018.12 1018.27 1018.32 1018.08 1017.87 1017.81 1017.72 1017.57 1017.42 1017.14 1017.03 1016.75 1016.18 1015.86 1015.28 1014.72 1014.24 1013.84 1013.28 1012.60 1012.06 1011.46 1010.74 1010.12 1009.66 1009.08 1008.42 1007.80 1007.03 1006.38 1005.75 1005.11 1004.51 1003.92 1003.14 1002.72 1002.66 1003.29 1003.46 1003.63 1004.08 1004.91 1004.83
Wind_Speed
8 10 8 10 13 13 3 10 11 9 8 9 9 10 9 9 7 8 15 9 15 17 16 16 17 16 15 14 14 15 15 14 15 14 12 10 7 7 7 7 7 7 7 6
4 4 6 12 11 9 9 7 4 8 5 7 7 4 8 3 10 7 4 12 18 17 17 18 18 17 16 14 12 14 15 15 14 11 10 9 9 7 7 7 8 7 7 8
4 9 9 4 6 4 6 6 9 8 10 4 4 3 8 6 7 9 4 7 8 17 20 17 18 18 16 15 12 14 14 13 11 10 10 10 8 7 7 8 6 6 7 4
4 4 3 5 12 5 8 9 4 3 9 11 9 5 10 12 12 15 15 3 8 11 15 15 15 15 14 12 12 13 12 12 11 11 11 7 9 9 7 6 6 6 4 7
3 2 7 7 13 9 6 6 16 11 6 13 10 10 8 13 12 12 8 7 1 5 8 9 12 12 12 11 12 12 13 12 11 11 10 10 10 9 6 5 4 4 7 9
2 2 2 5 16 19 6 4 15 14 8 22 10 8 4 6 13 14 9 8 6 7 6 7 7 10 12 11 11 14 13 12 10 11 11 12 11 8 5 5 7 7 8 7
2 2 2 15 19 7 8 5 10 15 14 9 5 3 6 4 11 10 7 11 11 9 7 5 6 7 10 10 13 12 9 8 9 11 12 11 9 5 7 9 10 9 10 8
3 2 5 20 12 9 6 6 7 12 15 12 9 10 9 9 9 9 13 11 12 9 7 7 2 7 6 7 9 7 8 9 9 11 9 9 12 8 11 12 11 11 11 8
5 4 12 10 2 5 9 4 6 8 9 8 11 11 10 10 9 10 10 7 8 8 7 5 5 3 6 8 7 7 7 8 9 9 9 11 13 12 10 10 11 9 9 9
3 13 18 13 18 17 11 9 5 5 7 8 7 8 9 9 7 8 8 8 6 8 8 7 8 8 7 6 6 7 8 9 9 11 10 9 8 10 10 9 10 10 9 10
5 14 19 15 23 23 18 10 7 5 6 7 7 7 7 6 7 5 5 5 5 6 5 8 9 9 6 5 7 7 8 8 9 10 11 10 6 3 7 9 12 11 10 11
2 8 6 13 17 23 23 9 8 1 5 5 6 6 5 6 5 6 8 8 8 6 7 8 9 10 7 5 7 9 8 8 9 9 8 8 8 6 14 5 14 13 13 11
3 11 11 10 16 21 19 24 10 1 1 4 5 5 6 5 6 6 5 6 7 7 8 8 9 10 7 6 7 9 10 10 7 9 9 9 8 9 9 8 12 10 16 15
7 13 5 12 12 19 18 20 14 10 5 3 3 4 4 5 5 5 7 6 7 7 7 9 14 7 6 7 7 7 8 11 10 9 9 9 9 9 9 10 10 5 5 9
11 7 7 10 12 14 15 16 18 16 12 11 5 4 4 5 7 7 7 8 8 8 12 13 12 10 3 6 7 8 9 8 7 8 8 9 8 9 9 9 9 7 4 8
12 11 12 11 13 12 13 16 15 16 14 11 10 12 8 3 5 6 7 7 10 10 10 12 13 15 13 3 7 9 10 13 10 9 8 9 9 9 8 8 9 8 8 8
10 12 12 11 11 14 15 12 12 13 12 11 13 12 9 5 6 8 8 8 6 4 5 7 11 14 12 9 5 7 7 9 13 9 9 9 9 10 8 9 9 9 9 9
8 8 9 10 11 11 11 11 12 12 11 12 14 11 6 7 7 8 8 8 8 8 7 7 8 11 11 9 6 5 7 10 9 9 8 9 10 8 9 10 10 10 8 9
8 10 10 11 12 11 11 13 14 13 15 14 14 9 7 6 5 6 7 8 8 9 7 6 12 10 11 12 10 3 6 10 9 9 9 10 10 10 10 10 10 10 10 11
6 8 9 10 12 13 12 12 13 13 13 14 13 13 13 13 12 10 8 8 10 11 17 9 8 9 10 9 12 5 4 8 11 10 10 11 11 11 10 12 12 11 11 12
6 7 9 11 11 12 12 11 11 12 12 12 13 12 11 11 13 13 11 9 15 19 18 19 13 10 5 6 5 6 6 3 9 11 12 13 12 12 12 12 12 11 11 11
5 6 7 8 8 11 12 10 11 12 12 13 13 14 15 14 15 12 6 10 11 23 15 9 11 20 11 10 5 6 7 5 3 8 10 13 13 14 14 14 13 11 11 11
3 4 5 5 6 6 7 9 11 12 13 13 13 13 11 8 7 10 12 14 13 19 11 10 19 25 21 6 6 6 8 7 3 4 2 5 8 12 12 13 13 12 11 11
1 2 2 4 4 5 7 7 6 6 7 8 9 11 11 8 7 7 7 12 17 18 11 13 17 22 15 10 9 7 6 5 5 2 3 9 4 4 3 5 10 12 12 12
6 5 4 2 3 3 3 4 5 6 7 7 9 9 9 7 7 9 9 10 16 14 11 15 19 20 10 9 10 10 11 8 6 4 5 6 2 1 1 3 4 9 10 12
2 4 4 2 3 3 1 1 1 3 4 5 4 5 6 6 6 7 8 11 11 13 10 10 10 11 10 9 9 10 11 11 11 5 2 2 9 11 10 7 4 6 10 12
4 3 4 3 4 5 3 3 1 3 3 4 4 5 5 6 7 8 9 9 10 10 9 10 10 11 10 10 10 9 9 10 12 11 9 6 3 4 3 3 0 7 12 11
Wind_Direction
274 261 266 269 285 292 246 226 178 203 194 238 216 172 180 126 115 189 236 182 185 184 180 177 178 181 186 184 181 184 187 193 206 210 211 210 200 201 197 191 210 215 226 232
285 269 283 272 273 276 281 208 169 149 228 248 192 255 93 86 120 90 40 214 183 180 169 175 174 177 183 185 182 179 186 197 203 201 201 202 202 192 180 198 208 207 219 223
306 314 323 325 300 258 284 248 171 175 211 179 54 226 104 43 73 49 124 227 186 179 173 169 173 178 185 185 177 182 190 199 195 190 195 197 192 178 186 201 195 202 222 198
250 349 185 216 27 26 312 281 336 162 163 165 158 175 101 84 54 32 357 36 176 179 171 171 173 180 182 176 177 183 193 195 192 190 196 174 176 190 195 190 185 204 129 116
80 234 274 16 3 338 340 310 8 338 215 155 159 95 12 95 89 79 3 328 195 135 160 155 169 171 168 171 177 184 198 197 192 187 183 177 185 191 184 152 166 111 128 125
19 3 355 278 321 308 207 313 354 357 317 152 154 119 230 325 79 78 25 349 6 112 95 141 163 159 163 180 179 196 199 200 186 180 181 183 182 174 151 123 118 124 103 118
192 269 37 334 326 310 71 284 333 7 344 36 63 113 120 46 56 80 55 7 358 43 79 99 142 149 180 181 196 201 193 178 174 178 179 175 156 127 125 122 117 115 113 118
141 154 9 341 2 62 289 319 17 22 7 32 48 46 52 61 49 48 62 10 3 27 33 14 43 163 191 196 204 169 163 168 169 166 167 155 136 130 132 129 127 122 123 115
54 61 309 299 12 8 26 31 1 39 13 14 29 33 31 34 24 34 48 24 354 10 353 25 18 248 193 226 174 174 164 163 157 152 147 144 138 140 136 136 138 134 135 135
94 349 338 342 5 15 15 15 24 30 40 31 41 33 24 18 11 28 23 23 345 15 358 353 357 345 226 198 178 161 163 159 154 146 139 137 139 146 144 148 144 142 146 148
70 14 343 352 344 336 339 358 15 26 38 41 42 24 29 8 0 8 38 10 1 10 337 329 334 336 298 187 149 149 158 154 144 142 143 133 103 116 154 161 151 154 161 157
33 1 308 288 314 341 343 328 342 357 43 18 46 43 24 10 340 9 10 360 5 358 336 328 326 309 290 187 156 149 151 152 153 143 132 133 126 91 35 82 131 132 145 153
325 314 301 297 311 344 349 334 334 55 48 70 11 16 17 359 347 347 346 351 359 325 312 312 301 277 257 184 159 167 159 158 131 134 143 142 145 139 129 34 61 122 142 139
354 335 358 352 328 338 339 348 348 19 14 14 3 355 4 348 327 4 9 329 325 331 335 339 325 258 196 169 158 158 149 140 152 150 149 147 158 149 145 152 155 132 50 151
347 340 322 323 336 341 340 359 359 359 5 6 351 23 5 352 347 352 352 348 352 1 6 354 343 337 260 166 142 130 138 155 153 147 151 151 155 144 154 148 153 146 120 55
326 341 351 356 341 341 340 355 355 342 347 349 351 343 327 346 339 354 2 3 26 360 349 354 356 347 335 243 153 154 162 157 151 151 145 152 152 154 150 149 151 155 158 161
344 347 338 340 344 346 346 348 337 314 326 338 330 323 311 351 7 13 2 350 347 326 322 14 353 340 325 318 229 171 155 154 148 148 159 160 160 168 152 157 162 166 164 164
344 0 356 344 345 342 341 338 329 330 335 333 328 324 342 12 1 353 347 330 335 338 332 3 346 342 335 341 290 211 160 158 161 159 159 167 168 159 162 165 166 162 156 164
9 8 356 2 360 351 354 347 351 4 5 359 349 349 332 338 350 344 339 342 340 341 320 330 340 355 344 345 341 271 184 168 161 164 170 168 174 157 171 168 166 164 163 163
17 17 11 14 13 14 5 5 359 10 9 359 354 7 0 353 354 347 341 345 3 350 329 320 328 5 324 339 349 347 323 193 174 173 177 179 184 161 172 170 167 164 170 175
10 14 7 19 16 16 17 10 8 17 11 10 11 9 352 351 359 3 22 10 351 351 344 355 360 347 313 330 353 348 346 307 200 184 187 185 183 163 170 175 172 172 174 180
1 360 0 6 10 17 14 10 17 18 18 12 13 11 9 9 2 360 13 11 341 350 338 355 356 345 335 331 356 1 335 290 252 203 199 195 185 170 173 173 172 172 179 182
1 350 1 9 19 358 339 4 5 12 16 11 11 7 6 357 356 358 347 348 345 342 333 354 347 350 345 340 341 334 320 297 258 202 237 240 189 176 179 174 172 168 171 176
268 343 334 332 332 7 17 355 355 357 19 15 14 6 359 354 356 352 335 335 341 345 350 353 351 352 359 359 342 310 292 268 268 233 84 61 35 72 195 177 183 178 169 176
186 186 181 295 345 355 2 350 347 357 358 6 10 3 3 1 356 336 348 350 348 350 353 356 357 358 1 357 354 346 344 317 209 238 138 124 117 50 116 68 159 210 186 183
320 280 285 245 256 267 259 356 11 330 347 344 341 346 343 347 346 348 351 357 358 353 351 1 4 2 359 357 359 2 353 359 1 337 292 154 175 191 216 201 206 195 210 208
38 35 60 346 281 252 249 266 319 321 329 324 316 334 332 334 346 353 357 358 2 1 360 358 8 9 5 3 4 9 11 1 4 358 358 1 139 141 143 102 228 217 219 219